EW1963 Weather Reports


time (UTC)temp
C
wind
direction
speed
KPH
gust
KPH
rain 1hr
cm
rain 24hr
cm
rain mn
cm
humidity
%
barometer
mb
20260510000205 30 142 0.0 1.6 0.00 0.00 0.00 66 1006.4
20260509235706 30 134 0.0 1.6 0.00 0.00 0.00 67 1006.4
20260509235206 30 134 0.0 1.6 0.00 0.00 0.00 66 1006.4
20260509234706 30 209 0.0 1.6 0.00 0.00 0.00 65 1006.3
20260509234206 30 208 0.0 1.6 0.00 0.00 0.00 65 1006.3
20260509233207 30 208 0.0 1.6 0.00 0.00 0.00 63 1006.3
20260509232706 30 208 0.0 1.6 0.00 0.00 0.00 64 1006.2
20260509232207 30 208 0.0 1.6 0.00 0.00 0.00 63 1006.2
20260509231707 30 208 0.0 1.6 0.00 0.00 0.00 61 1006.2
20260509231206 31 208 0.0 0.0 0.00 0.00 0.00 66 1006.1
20260509230207 31 208 0.0 0.0 0.00 0.00 0.00 60 1006.2
20260509225706 31 208 0.0 0.0 0.00 0.00 0.00 61 1006.2
20260509225206 31 208 0.0 0.0 0.00 0.00 0.00 63 1006.3
20260509224207 30 208 0.0 0.0 0.00 0.00 0.00 59 1006.3
20260509223206 30 208 0.0 0.0 0.00 0.00 0.00 69 1006.3
20260509222206 29 208 0.0 0.0 0.00 0.00 0.00 64 1006.3
20260509221707 29 208 0.0 0.0 0.00 0.00 0.00 71 1006.3
20260509221206 29 208 0.0 0.0 0.00 0.00 0.00 62 1006.3
20260509220706 29 208 0.0 0.0 0.00 0.00 0.00 67 1006.2
20260509220206 29 208 0.0 0.0 0.00 0.00 0.00 58 1006.3
20260509215707 29 208 0.0 0.0 0.00 0.00 0.00 63 1006.4
20260509215206 29 208 0.0 0.0 0.00 0.00 0.00 56 1006.4
20260509213706 29 208 0.0 1.6 0.00 0.00 0.00 60 1006.6
20260509213207 29 208 0.0 0.0 0.00 0.00 0.00 65 1006.7
20260509212706 28 205 0.0 0.0 0.00 0.00 0.00 68 1006.8
20260509212206 28 205 0.0 0.0 0.00 0.00 0.00 73 1006.8
20260509211707 27 205 0.0 0.0 0.00 0.00 0.00 76 1006.9
20260509210706 27 205 0.0 1.6 0.00 0.00 0.00 80 1007.0
20260509210206 27 205 0.0 8.0 0.00 0.00 0.00 79 1007.1
20260509205706 27 204 0.0 8.0 0.00 0.00 0.00 80 1007.3
20260509205207 27 203 0.0 1.6 0.00 0.00 0.00 80 1007.4
20260509204706 27 204 0.0 0.0 0.00 0.00 0.00 76 1007.2
20260509204207 26 204 0.0 0.0 0.00 0.00 0.00 80 1007.2
20260509203706 26 204 0.0 0.0 0.00 0.00 0.00 80 1007.1
20260509203206 26 204 0.0 0.0 0.00 0.00 0.00 83 1007.0
20260509202706 25 204 0.0 0.0 0.00 0.00 0.00 84 1007.2
20260509202206 25 204 0.0 0.0 0.00 0.00 0.00 89 1007.3
20260509201707 24 204 0.0 0.0 0.00 0.00 0.00 89 1007.2
20260509201207 23 204 0.0 0.0 0.00 0.00 0.00 91 1007.4
20260509200707 23 204 0.0 0.0 0.00 0.00 0.00 92 1007.9
20260509200207 21 204 0.0 11.3 0.00 0.00 0.00 91 1008.2
20260509195706 21 204 0.0 11.3 0.00 0.00 0.00 86 1008.2
20260509195207 22 204 0.0 11.3 0.00 0.00 0.00 86 1008.4
20260509194706 22 207 0.0 6.4 0.00 0.00 0.00 82 1009.1
20260509194204 23 23 0.0 6.4 0.00 0.00 0.00 75 1008.7
20260509192706 28 288 0.0 0.0 0.00 0.00 0.00 69 1007.9
20260509192207 29 277 0.0 0.0 0.00 0.00 0.00 77 1007.9
20260509191706 29 277 0.0 0.0 0.00 0.00 0.00 74 1007.7
20260509191206 30 277 0.0 0.0 0.00 0.00 0.00 73 1007.8
20260509190206 30 277 0.0 4.8 0.00 0.00 0.00 72 1007.7
20260509185707 30 277 0.0 4.8 0.00 0.00 0.00 71 1007.7
20260509185206 30 277 0.0 6.4 0.00 0.00 0.00 71 1007.8
20260509184706 30 278 0.0 6.4 0.00 0.00 0.00 71 1007.9
20260509184207 30 278 0.0 6.4 0.00 0.00 0.00 72 1007.9
20260509183706 30 300 0.0 4.8 0.00 0.00 0.00 70 1008.1
20260509183206 30 300 0.0 4.8 0.00 0.00 0.00 71 1008.3
20260509182706 30 300 0.0 4.8 0.00 0.00 0.00 69 1008.4
20260509182205 31 339 0.0 4.8 0.00 0.00 0.00 68 1008.5
20260509181706 31 344 0.0 1.6 0.00 0.00 0.00 69 1008.5
20260509180710 30 336 0.0 1.6 0.00 0.00 0.00 70 1008.6
20260509180207 30 336 0.0 4.8 0.00 0.00 0.00 69 1008.6
20260509175707 30 337 0.0 4.8 0.00 0.00 0.00 70 1008.7
20260509175206 30 348 0.0 4.8 0.00 0.00 0.00 69 1008.6
20260509174706 30 331 0.0 0.0 0.00 0.00 0.00 71 1008.6
20260509173707 29 331 0.0 1.6 0.00 0.00 0.00 72 1009.2
20260509173206 30 331 0.0 1.6 0.00 0.00 0.00 72 1009.3
20260509172706 30 341 0.0 1.6 0.00 0.00 0.00 70 1009.3
20260509171707 30 279 0.0 1.6 0.00 0.00 0.00 71 1009.3
20260509171206 30 279 0.0 3.2 0.00 0.00 0.00 71 1009.2
20260509170706 30 267 0.0 4.8 0.00 0.00 0.00 73 1009.1
20260509170207 29 268 0.0 4.8 0.00 0.00 0.00 72 1009.1
20260509165706 29 237 0.0 4.8 0.00 0.00 0.00 75 1009.0
20260509164706 28 237 0.0 4.8 0.00 0.00 0.00 76 1009.1
20260509164207 28 237 0.0 4.8 0.00 0.00 0.00 76 1009.1
20260509163706 28 238 0.0 1.6 0.00 0.00 0.00 77 1009.3
20260509162706 28 238 0.0 8.0 0.00 0.00 0.00 77 1009.3
20260509162205 28 238 0.0 8.0 0.00 0.00 0.00 78 1009.3
20260509161706 28 254 0.0 1.6 0.00 0.00 0.00 79 1009.4
20260509161206 27 254 0.0 1.6 0.00 0.00 0.00 79 1009.4
20260509160706 27 239 0.0 1.6 0.00 0.00 0.00 79 1009.3
20260509160207 27 239 0.0 1.6 0.00 0.00 0.00 79 1009.3
20260509155706 27 239 0.0 1.6 0.00 0.00 0.00 79 1009.3
20260509155206 27 239 0.0 0.0 0.00 0.00 0.00 81 1009.3
20260509154707 27 239 0.0 3.2 0.00 0.00 0.00 82 1009.4
20260509154206 27 239 0.0 3.2 0.00 0.00 0.00 84 1009.3
20260509153706 26 239 0.0 4.8 0.00 0.00 0.00 85 1009.4
20260509153206 26 239 0.0 4.8 0.00 0.00 0.00 85 1009.3
20260509152207 25 239 0.0 3.2 0.00 0.00 0.00 88 1009.3
20260509151706 25 239 0.0 4.8 0.00 0.00 0.00 89 1009.4
20260509151207 25 239 0.0 8.0 0.00 0.00 0.00 91 1009.4
20260509150706 24 238 1.6 8.0 0.00 0.00 0.00 91 1009.4
20260509150207 24 239 1.6 8.0 0.00 0.00 0.00 91 1009.3
20260509145706 24 261 0.0 1.6 0.00 0.00 0.00 92 1009.2
20260509145206 23 261 0.0 1.6 0.00 0.00 0.00 93 1009.2
20260509144207 23 261 0.0 0.0 0.00 0.00 0.00 94 1009.2
20260509004706 26 0.0 1.6 0.00 0.00 0.00 80 1006.9
20260509004206 26 261 0.0 6.4 0.00 0.00 0.00 80 1006.9
20260509003706 26 261 0.0 6.4 0.00 0.00 0.00 80 1006.9
20260509003206 26 261 1.6 6.4 0.00 0.00 0.00 79 1006.8
20260509002707 26 261 1.6 4.8 0.00 0.00 0.00 79 1006.9
20260509002205 26 261 0.0 4.8 0.00 0.00 0.00 79 1007.0
20260509001706 26 261 0.0 4.8 0.00 0.00 0.00 78 1007.0
20260509001206 26 262 0.0 4.8 0.00 0.00 0.00 78 1007.0
20260509000706 26 262 0.0 4.8 0.00 0.00 0.00 78 1007.0